Theta_e
264 264 264 264 264 264 264 264 264 264 264 264 264 265 265 265 265 265 265 265 265 266 266 267 269 270 271 271 271 272 272 273 273 274 275 275 276 276 277 277 278 279 279 280 280 281 283 284 286 287 288 289 289 290 290 290 291 291 292 293 293 294 294 295 297 299 300 300 301 302 302 302 302 302
264 264 264 264 264 264 264 264 264 264 264 264 264 264 264 264 264 263 264 264 264 265 265 266 267 267 269 270 271 271 271 272 272 273 274 274 275 276 276 276 277 278 278 279 279 280 281 282 284 285 287 288 289 289 290 290 291 291 291 292 292 292 293 294 294 295 297 298 299 301 301 301 301 301
264 264 264 263 263 264 263 263 263 263 263 263 263 263 263 263 263 263 263 263 264 265 264 265 266 266 267 268 269 270 271 271 271 271 272 273 273 274 275 275 276 277 277 278 279 279 280 280 282 283 285 286 288 289 289 289 290 290 291 290 291 291 293 294 294 294 294 295 296 298 299 299 300 300
263 263 263 263 263 263 263 263 263 263 263 263 263 263 263 263 263 262 262 262 263 264 264 264 265 265 265 266 266 268 270 270 270 270 271 271 271 272 273 274 275 276 276 277 278 278 278 279 280 281 282 284 286 287 288 288 289 289 290 290 290 291 292 294 295 295 295 294 294 294 296 297 299 300
263 263 263 263 262 262 262 262 262 262 262 262 262 263 262 262 262 262 262 261 262 264 264 263 264 264 264 264 265 266 268 268 269 269 269 269 270 271 272 272 273 274 275 276 277 277 278 278 278 279 280 282 283 284 286 287 288 288 288 289 289 289 290 292 293 294 295 295 295 295 295 296 297 298
262 262 262 262 262 262 262 262 262 262 262 262 262 262 262 262 262 262 262 261 261 263 263 263 264 264 263 264 265 265 265 267 267 268 268 269 269 269 270 270 271 272 273 274 275 275 276 277 277 278 279 280 281 282 283 285 287 288 288 288 288 288 289 290 291 293 294 295 296 296 296 296 296 297
261 261 261 262 262 261 261 261 261 261 262 262 262 262 262 262 262 262 262 261 261 262 263 263 263 264 263 263 264 264 264 265 266 266 267 268 268 268 269 269 270 271 272 272 273 274 274 275 275 276 277 278 280 281 282 283 285 287 287 287 288 288 287 288 289 290 292 293 294 295 296 296 296 296
261 261 261 261 261 261 261 261 261 261 262 262 261 262 262 262 262 262 262 262 262 261 262 263 263 263 263 263 264 264 264 264 265 265 266 267 268 268 268 268 268 269 270 271 271 272 273 274 274 275 275 277 278 280 281 282 284 285 286 286 287 287 287 286 287 288 290 291 292 294 295 296 296 296
261 261 261 261 261 261 261 261 261 261 261 261 261 261 262 262 262 262 262 262 262 262 262 262 263 263 263 263 263 264 264 264 265 265 265 266 267 267 268 268 268 268 268 269 270 271 272 273 273 274 274 275 277 278 280 281 282 283 284 285 285 286 286 285 285 285 287 289 291 292 293 294 295 296
261 261 261 261 261 261 261 261 261 261 261 261 261 261 262 262 262 262 262 262 262 262 262 262 262 263 263 262 263 264 264 264 264 265 265 266 266 267 267 267 268 268 268 268 269 269 270 271 272 273 273 274 275 276 278 280 281 282 283 284 284 284 285 285 283 283 284 286 289 291 292 293 294 294
261 261 261 261 261 261 261 261 261 261 261 261 261 262 262 262 262 262 262 262 262 261 261 262 262 262 263 262 263 264 264 264 264 265 265 266 266 267 267 267 268 268 268 268 268 268 269 269 270 271 272 273 274 274 276 278 279 280 282 283 284 284 284 284 283 282 283 285 287 289 290 291 292 293
261 261 261 261 261 261 261 261 261 261 261 261 261 262 262 262 262 262 262 261 261 261 261 261 262 262 262 262 263 263 264 264 264 265 265 265 266 267 267 267 268 268 268 268 268 268 268 269 269 271 272 272 273 274 275 276 277 279 280 282 283 283 284 284 283 282 283 285 286 288 289 290 291 292
261 261 261 261 261 261 261 261 261 261 261 261 262 262 262 262 262 262 261 261 261 261 260 261 261 261 262 263 263 263 264 265 265 265 265 265 266 267 267 267 268 268 268 268 268 268 268 268 269 270 271 272 273 273 274 275 275 277 279 280 282 283 283 283 282 282 283 284 285 286 288 289 289 291
261 261 261 261 261 261 261 261 261 261 261 261 262 262 262 261 261 261 261 261 261 261 261 261 261 261 262 263 263 264 265 265 265 265 265 265 266 266 265 266 268 268 268 268 268 269 269 268 268 269 270 271 272 273 273 274 275 276 277 279 280 282 283 283 282 282 283 284 285 285 287 288 288 289
261 261 261 261 261 261 261 261 261 261 262 262 262 262 262 262 261 261 261 261 261 261 261 262 262 262 262 263 264 264 264 265 266 266 266 265 265 265 264 266 268 269 268 268 268 268 269 269 268 268 269 270 272 273 273 274 275 276 277 278 279 281 282 282 282 282 283 284 285 285 286 287 287 288
261 261 261 261 261 261 261 261 261 262 262 262 262 262 262 262 263 263 263 262 262 262 262 262 263 262 263 263 264 264 265 265 266 266 265 265 265 265 264 265 267 269 269 267 266 267 269 269 268 268 269 269 271 272 273 274 275 276 277 278 279 280 281 282 282 282 282 284 284 285 286 287 287 287
261 261 261 261 261 261 261 261 262 262 262 262 262 262 262 262 263 263 263 264 263 263 263 263 263 263 263 263 264 265 265 266 266 265 265 266 266 265 265 266 268 269 268 266 266 267 268 268 268 268 268 268 269 270 272 273 274 275 276 278 279 280 280 281 281 281 281 283 284 284 285 286 286 286
261 261 261 261 261 261 261 261 262 262 262 262 262 262 262 263 263 263 263 264 264 264 264 263 263 264 264 264 264 265 266 266 265 266 266 267 267 266 267 267 268 268 267 267 266 266 268 269 268 268 268 268 268 269 271 273 274 274 276 277 278 279 280 281 281 281 281 281 283 284 285 285 285 285
261 261 261 261 261 261 261 261 261 262 262 262 262 262 263 263 263 263 263 264 264 264 264 264 264 265 265 265 265 266 266 266 266 267 267 267 267 267 267 266 266 267 268 267 266 266 268 269 268 268 268 268 268 269 270 272 273 274 275 276 278 279 280 281 281 281 280 280 281 283 284 284 284 285
261 261 261 261 261 261 261 261 262 262 262 262 262 262 263 263 263 263 263 264 265 265 265 265 266 266 266 267 267 267 267 267 268 268 267 267 267 266 266 266 266 267 268 269 267 267 268 269 268 268 269 268 268 268 269 271 273 274 275 276 277 278 279 280 281 281 280 280 280 282 283 283 284 284
260 260 261 261 261 261 261 261 262 262 263 263 263 263 263 263 263 263 264 265 265 265 266 266 266 267 267 267 268 268 268 268 268 268 267 267 267 266 266 266 266 267 268 269 269 267 267 268 268 268 269 268 268 268 269 271 273 274 275 276 277 278 278 280 281 281 280 280 281 282 283 283 283 283
260 260 261 261 261 261 261 262 262 263 263 263 263 263 263 264 264 264 265 265 265 265 266 266 266 267 267 267 267 268 268 268 268 268 268 268 268 267 267 267 267 267 268 269 269 267 267 268 268 269 269 269 268 268 270 272 273 274 275 277 278 278 278 279 280 280 280 280 281 282 282 282 282 282
260 260 261 261 261 261 261 262 263 263 264 264 264 264 264 264 264 264 265 265 265 266 266 266 266 267 267 267 267 267 268 268 268 268 268 268 268 268 268 268 268 267 268 268 269 268 268 268 268 269 268 268 269 269 270 272 273 274 275 277 277 277 278 279 280 280 280 280 280 281 281 282 282 281
260 260 261 261 261 261 262 263 263 264 264 264 264 264 264 264 264 265 265 265 265 266 266 266 266 267 267 267 268 268 268 268 268 269 269 268 268 268 268 269 268 268 268 269 269 268 268 268 268 269 268 268 268 269 270 271 273 274 275 276 277 277 278 279 280 279 280 280 280 281 281 281 281 281
260 260 260 261 261 262 262 263 264 264 264 264 264 264 264 264 265 265 265 265 265 265 265 266 266 267 267 267 268 268 268 269 269 269 269 269 269 268 268 269 269 269 268 269 269 268 268 268 268 268 268 268 268 269 270 271 272 274 275 276 277 277 278 279 279 279 279 278 278 279 279 280 280 279
260 260 260 261 261 262 262 263 263 263 264 264 264 264 265 265 265 265 265 266 266 266 266 266 266 267 267 268 268 268 269 269 269 270 270 270 269 269 268 268 268 268 269 269 269 268 268 268 268 268 268 268 269 270 271 271 272 274 275 276 276 276 277 277 278 277 277 277 277 277 277 277 278 278
260 260 260 260 261 261 262 262 263 263 263 264 264 264 265 265 265 265 266 266 266 266 266 266 266 267 268 268 269 269 269 270 270 270 270 270 270 269 269 268 268 268 269 269 269 268 268 268 268 268 268 268 268 269 271 272 273 274 275 275 276 276 276 276 276 276 277 277 276 276 276 276 277 278
259 259 259 260 260 261 261 262 263 263 263 264 264 264 264 264 265 265 265 265 265 265 266 266 266 267 268 268 269 270 270 270 270 270 270 270 270 270 270 269 269 269 268 268 268 268 268 268 268 268 268 268 268 269 270 271 272 273 274 275 275 275 275 276 276 276 276 276 276 276 276 276 277 277
258 259 259 259 260 261 261 261 262 263 263 264 264 264 264 264 264 265 265 265 265 265 266 266 266 267 268 268 269 270 270 270 270 270 270 271 271 270 270 270 269 269 268 268 268 267 267 268 268 268 268 268 268 269 270 270 271 272 273 274 274 275 275 275 275 275 276 276 276 276 276 277 277 277
258 259 259 259 260 260 260 261 262 262 263 264 264 265 265 264 264 265 265 265 265 265 265 266 266 268 269 269 269 269 269 270 270 271 271 271 271 271 270 270 270 269 269 268 268 267 267 267 267 268 268 268 268 269 270 270 271 272 273 273 274 274 275 275 275 276 276 276 276 277 277 277 277 277
259 259 259 259 259 260 260 261 261 262 263 264 265 265 265 265 264 265 265 265 264 265 266 266 267 268 269 269 270 270 270 270 271 271 271 271 271 271 270 269 269 269 269 269 268 267 267 267 267 267 268 268 268 269 269 270 270 271 272 273 274 274 274 275 275 276 276 277 277 277 277 277 277 278
259 259 259 259 259 260 261 261 262 263 263 264 265 265 266 265 265 265 265 265 265 265 266 267 268 268 269 269 269 270 270 271 271 271 271 271 271 270 269 268 268 269 268 268 268 267 267 267 267 267 267 267 268 269 270 270 271 271 272 273 273 274 274 274 275 276 277 277 277 277 277 278 278 279
259 259 259 259 260 260 261 262 262 263 263 264 264 265 265 265 265 265 265 265 266 266 267 268 268 268 269 270 270 270 271 271 271 271 271 271 271 270 269 268 268 268 268 267 268 268 267 267 267 267 267 268 269 269 270 270 271 272 272 273 273 274 274 274 275 276 277 277 278 278 278 278 279 279
259 259 259 259 260 260 261 261 262 262 263 263 264 264 265 265 265 265 265 265 266 267 268 268 269 269 269 270 271 271 271 272 272 272 271 271 271 271 270 269 269 268 268 267 268 268 267 267 267 268 268 269 270 270 270 270 271 272 272 273 273 274 274 275 276 276 277 277 278 278 278 279 279 280
258 258 259 259 260 260 260 260 261 261 262 262 263 264 265 265 265 265 266 266 267 267 268 268 269 269 270 270 270 271 271 272 272 272 272 271 272 271 270 269 269 268 268 268 268 268 268 268 268 269 269 270 270 271 271 271 271 272 273 273 273 273 274 275 275 276 276 277 278 279 279 279 280 280
258 259 259 259 259 259 259 260 260 260 260 261 262 263 264 265 265 265 265 266 266 267 267 268 269 269 270 270 271 271 271 271 272 272 272 272 272 271 271 270 269 269 269 269 269 269 269 270 270 270 271 271 271 271 272 272 272 272 273 273 273 273 274 275 275 275 276 277 278 279 279 280 280 280
259 259 259 259 259 259 259 259 259 260 260 260 261 262 263 264 264 264 264 265 266 266 266 267 267 268 269 270 270 271 271 271 271 272 272 272 272 271 271 270 270 270 270 270 270 270 270 271 271 271 272 272 272 272 272 272 273 273 273 273 273 273 274 274 275 275 277 278 278 279 279 280 280 280
259 258 258 258 258 258 258 258 259 259 260 260 261 261 262 263 264 264 264 265 265 266 266 266 267 268 268 269 270 270 271 272 271 271 272 272 272 272 271 271 271 271 271 271 271 271 271 271 272 272 272 272 272 272 272 272 272 273 273 273 273 273 274 274 275 276 277 278 279 279 280 280 281 280
258 258 258 258 258 258 258 258 258 259 260 260 260 261 262 262 263 264 264 265 265 265 265 266 266 267 267 268 269 270 271 271 271 271 271 271 272 272 272 272 271 271 272 272 272 272 271 271 272 272 272 272 272 272 272 272 272 273 273 273 273 273 274 274 275 276 277 278 279 280 280 280 280 280
258 258 258 258 258 257 258 258 258 258 259 259 260 260 261 261 262 263 264 264 264 264 265 265 265 266 267 267 268 269 270 271 271 271 271 271 271 271 272 272 272 272 272 272 272 272 272 272 272 272 272 272 272 272 272 272 272 273 273 273 273 274 275 275 276 277 278 279 280 280 280 279 279 280
258 258 258 257 257 257 257 258 258 258 259 259 259 260 260 261 261 262 262 263 263 263 264 264 265 265 266 266 267 268 269 270 271 271 271 271 271 271 271 272 272 272 272 272 272 272 272 272 272 272 272 272 272 272 272 272 272 273 273 274 274 275 275 276 277 277 278 280 280 280 279 279 279 279
257 258 258 257 257 257 257 257 258 258 259 259 259 260 260 261 261 261 262 262 262 263 263 264 265 265 265 266 266 267 268 269 270 271 271 271 271 271 271 272 272 272 272 272 272 272 272 272 272 272 272 272 272 272 272 272 273 273 274 275 276 276 276 277 277 278 279 280 280 280 279 279 279 279
257 257 257 258 257 257 257 258 258 258 258 259 259 260 260 261 261 261 261 262 262 263 263 264 264 265 265 266 266 267 267 268 269 270 271 271 271 271 271 271 272 272 272 272 272 272 272 272 271 271 271 272 272 272 272 272 273 273 274 275 277 277 277 277 278 278 279 279 279 279 279 279 279 279
257 257 257 257 257 257 257 258 258 258 258 259 259 260 260 260 261 261 261 261 262 262 262 263 264 265 266 266 266 267 267 268 269 270 271 271 271 271 271 271 272 272 272 272 272 272 272 272 272 272 272 272 272 272 272 273 273 273 274 276 277 277 277 278 278 279 279 279 279 279 279 279 279 279
257 258 258 257 257 257 258 258 258 258 258 259 259 260 260 260 261 261 261 261 261 261 262 263 264 265 266 266 267 267 267 268 269 270 271 271 271 271 272 272 272 272 272 272 272 272 272 272 272 272 272 272 272 272 273 273 273 274 275 276 277 277 278 279 279 279 279 279 279 279 279 279 279 279
Wind_Speed
29 29 28 28 28 28 27 28 29 28 28 28 27 27 26 27 32 36 37 38 38 35 34 36 40 40 38 39 37 34 34 32 32 33 36 37 38 39 39 40 39 38 36 32 28 27 28 31 32 31 32 33 35 36 36 35 35 34 34 35 34 34 35 37 39 40 36 32 35 37 37 38 38 37
30 31 32 32 33 33 32 33 33 31 31 32 31 31 31 30 33 35 38 45 44 37 32 31 33 37 40 41 42 41 39 37 36 37 38 39 39 39 39 40 41 42 41 39 36 33 33 34 35 33 31 32 35 36 36 37 37 36 36 36 35 34 34 35 38 41 40 37 37 38 37 36 38 39
30 31 32 32 33 34 33 34 34 33 33 34 33 34 34 32 34 35 35 43 49 39 32 34 37 40 44 46 45 45 43 41 41 41 42 43 43 43 43 43 43 43 44 44 43 41 38 37 37 36 35 34 35 35 36 38 38 38 38 38 37 36 36 37 38 39 41 42 42 41 38 35 35 37
30 30 31 31 31 31 32 32 32 32 32 33 33 33 34 33 33 34 32 40 52 47 37 41 47 44 44 45 45 46 45 43 42 42 42 43 43 44 46 47 46 46 46 46 46 46 44 40 38 39 40 40 38 37 37 38 39 40 40 40 40 39 38 37 38 38 38 41 43 42 39 37 36 35
30 30 30 31 30 29 30 31 31 32 32 33 33 33 33 34 33 32 33 37 49 52 43 41 47 44 41 43 43 43 44 44 42 41 41 41 41 42 44 45 47 48 49 49 49 49 48 46 43 41 40 41 44 44 42 39 38 40 42 41 40 41 39 37 38 40 39 39 41 41 39 40 41 39
30 30 30 30 30 29 30 31 31 31 31 31 32 32 31 33 33 31 33 36 42 50 48 43 46 45 39 41 42 39 40 42 41 39 40 41 40 40 40 42 44 45 47 49 51 52 52 50 48 45 42 41 42 45 48 45 40 39 42 41 38 39 40 37 37 40 40 40 41 41 41 41 43 44
30 30 30 30 29 28 29 31 30 29 30 29 30 31 30 31 32 31 31 35 39 46 49 45 45 45 41 40 41 39 38 40 39 38 39 39 39 38 39 40 42 43 43 44 47 50 52 53 52 49 46 44 42 42 46 47 43 40 42 40 35 35 39 38 38 39 40 39 39 40 42 42 43 44
28 28 28 28 27 26 27 29 29 28 29 29 29 31 31 30 32 32 31 34 37 42 47 47 46 45 44 42 41 40 39 38 38 38 38 37 36 36 36 37 39 40 40 40 43 45 48 52 53 52 50 48 44 43 44 45 43 39 39 40 36 34 37 42 43 42 41 41 40 41 42 40 41 43
25 25 26 26 25 26 28 29 30 29 29 29 29 30 31 31 32 33 33 34 37 40 45 47 46 45 45 43 41 39 39 39 39 38 37 35 35 35 34 35 36 37 37 37 39 42 44 47 50 52 53 50 46 44 45 44 43 41 39 40 41 38 36 41 46 43 41 42 42 43 43 39 37 39
25 26 27 27 27 28 29 30 30 30 29 29 30 30 32 32 33 35 36 36 38 41 44 46 47 47 46 44 42 40 38 39 40 39 38 37 34 33 34 34 34 35 36 36 36 37 39 42 45 48 51 51 49 49 48 44 43 44 41 40 44 43 37 38 44 42 40 41 41 42 44 41 39 39
28 28 28 29 29 29 30 31 31 31 31 31 32 33 33 34 35 37 39 39 40 42 44 45 47 48 47 45 44 40 38 39 39 39 40 39 35 33 35 35 35 34 35 36 35 35 35 36 39 42 45 47 48 49 49 45 44 46 45 41 42 44 39 37 43 42 37 39 40 40 42 41 41 40
30 31 31 31 32 32 32 32 32 32 32 33 34 35 34 35 37 39 41 41 42 43 44 45 46 47 47 46 44 41 39 40 40 37 38 40 38 36 37 37 36 35 34 35 36 36 35 34 34 35 38 41 43 46 47 48 49 50 49 44 42 44 41 38 43 42 37 37 39 39 40 40 39 39
33 33 34 34 34 33 33 33 33 33 32 33 34 35 34 35 37 40 41 41 42 43 44 46 46 46 48 47 44 42 39 40 40 37 37 41 41 40 41 40 37 34 35 35 36 36 35 36 36 34 35 36 36 39 43 46 50 52 52 49 44 43 43 41 44 44 39 38 40 40 40 39 38 38
35 35 35 35 34 33 33 33 33 33 33 32 33 34 35 37 39 41 42 43 43 44 45 47 46 47 49 47 44 43 40 39 40 40 40 42 42 41 43 43 37 32 34 36 36 36 34 34 36 35 35 35 33 34 37 40 43 46 50 52 48 46 47 44 44 45 41 40 41 40 39 38 36 37
36 36 35 35 34 33 33 33 33 33 33 33 34 34 35 36 38 40 43 45 45 46 47 48 47 48 50 48 45 45 43 41 41 42 42 43 44 42 42 45 39 31 31 35 35 36 34 32 35 34 33 34 34 34 35 35 37 38 42 49 50 48 48 43 40 42 42 40 41 40 38 36 35 36
35 35 34 33 33 32 32 33 33 34 34 34 34 34 34 34 35 37 40 44 46 47 48 50 50 50 51 50 49 47 44 42 41 44 45 44 45 44 43 46 43 33 31 35 36 38 36 34 37 38 35 35 37 38 37 35 36 37 38 42 47 50 50 46 43 45 43 40 41 41 39 36 34 35
32 32 32 32 33 33 33 33 33 33 34 34 34 35 35 36 36 37 37 39 42 45 47 49 50 49 49 50 50 45 41 42 44 46 47 46 46 47 45 46 44 37 34 35 37 41 41 37 38 41 39 38 39 41 42 39 37 38 38 39 44 49 52 51 51 52 46 40 41 41 39 38 36 35
30 31 31 31 33 33 33 34 33 33 34 35 36 37 38 39 39 40 40 39 40 41 44 47 49 48 48 49 48 42 40 44 48 48 48 47 47 49 47 46 46 43 41 39 39 44 44 39 40 43 41 40 40 41 43 41 38 40 41 42 43 46 49 51 52 53 50 44 42 41 41 39 38 36
30 30 30 30 32 33 34 34 34 34 36 37 39 40 41 42 43 44 44 44 44 44 44 46 47 46 45 45 45 42 41 44 47 48 49 49 49 50 49 49 49 48 45 42 42 46 45 39 39 41 40 40 41 40 41 41 39 39 41 44 45 45 46 47 47 48 49 47 44 42 41 40 37 36
29 29 29 29 31 32 34 35 35 35 36 38 41 43 44 45 46 47 47 45 45 46 46 47 48 47 45 44 44 44 43 45 46 48 51 52 52 52 52 52 53 50 47 43 43 48 47 40 38 39 37 38 41 41 41 41 38 36 37 41 45 47 45 44 44 44 44 46 46 41 38 37 35 35
27 27 28 28 31 33 36 37 36 35 35 38 41 43 44 45 45 46 45 43 42 43 43 44 45 46 46 46 46 46 46 47 48 50 53 53 52 52 52 52 53 51 50 47 45 48 48 41 38 38 37 37 39 40 41 41 36 32 33 37 42 46 46 42 41 41 41 43 44 40 36 35 34 33
27 28 29 29 32 35 37 37 36 35 35 36 38 39 41 42 44 45 44 44 44 43 42 42 42 43 44 45 46 46 46 47 47 49 52 52 50 51 51 51 51 51 52 50 46 47 48 43 38 37 38 39 40 39 39 39 34 29 30 34 38 41 44 42 39 38 40 41 41 37 34 33 32 32
31 31 33 33 34 36 37 36 34 32 31 32 34 38 40 42 44 45 45 45 46 47 46 46 45 45 45 45 44 44 45 45 45 47 49 49 49 50 51 51 50 49 50 49 46 47 48 43 39 37 35 37 39 38 36 37 34 29 27 31 35 37 39 38 36 36 38 38 37 35 32 31 30 31
35 35 36 36 35 34 32 30 27 26 27 30 34 39 42 43 44 44 43 43 43 43 44 45 45 46 47 46 46 45 45 45 44 45 46 47 48 48 49 52 51 51 51 49 45 46 46 41 38 36 32 32 35 35 33 32 31 27 24 25 30 35 37 35 34 35 34 32 31 31 31 30 29 31
36 37 37 36 33 30 26 24 26 29 31 33 36 39 41 40 40 39 40 40 39 39 41 43 45 47 48 48 48 47 46 45 44 43 44 47 48 47 47 49 50 52 53 50 46 46 44 39 35 33 30 27 30 33 33 31 29 27 26 26 28 33 37 36 34 34 31 29 29 30 29 29 29 30
36 37 36 34 31 29 29 30 33 34 34 33 35 36 36 36 36 37 40 42 42 43 43 43 45 47 48 48 48 47 45 44 42 42 43 46 49 49 49 49 50 52 51 48 45 46 43 37 35 34 31 27 27 30 32 32 30 27 25 25 26 29 32 32 31 31 31 32 34 35 35 35 34 34
37 37 35 34 34 34 35 35 34 32 30 30 31 31 32 33 35 36 38 39 38 38 38 38 40 43 45 46 46 45 43 41 39 40 41 41 41 43 43 44 46 48 47 44 43 44 42 39 37 37 35 31 30 30 29 27 26 24 21 21 22 24 26 26 27 30 33 35 38 39 40 39 38 38
34 34 34 35 36 36 35 34 31 28 27 27 27 27 28 29 29 29 29 28 27 27 27 28 31 36 40 42 43 43 41 39 39 40 38 33 30 31 33 35 39 42 42 42 42 41 40 40 40 39 37 32 31 32 31 27 24 22 19 19 19 21 23 24 26 30 33 36 38 39 39 39 38 38
31 34 37 38 39 38 35 33 31 30 29 27 24 23 22 22 22 21 19 18 17 18 20 22 24 29 34 38 40 40 39 39 39 38 35 30 28 28 30 32 34 37 38 39 40 39 37 38 38 37 35 31 28 28 30 30 28 24 22 21 19 19 21 23 26 30 32 34 35 36 37 37 36 36
34 37 39 39 38 37 35 33 32 31 29 26 22 20 19 18 18 16 14 13 14 17 18 20 22 23 23 25 28 29 29 31 34 33 32 32 31 31 32 33 34 35 34 35 38 39 38 38 38 37 36 33 31 30 30 31 30 25 22 22 21 20 20 21 24 27 29 30 31 31 32 31 31 32
38 39 38 37 36 34 32 30 28 27 26 24 21 19 19 18 16 14 13 13 15 17 18 19 19 18 16 17 20 21 20 23 26 28 30 32 33 34 34 35 36 35 32 32 34 35 36 38 39 40 40 39 37 35 34 33 31 26 23 23 24 24 22 20 20 21 23 26 27 27 26 27 27 27
38 38 36 34 33 31 29 27 25 24 23 22 21 20 20 19 18 15 14 14 15 16 16 17 17 16 13 13 16 18 19 22 23 25 28 31 34 35 34 35 35 34 31 31 31 30 32 35 36 37 39 39 38 36 34 34 32 28 25 25 26 26 25 22 20 18 18 22 25 26 26 27 27 27
36 35 34 31 30 28 27 26 25 24 23 22 21 21 21 21 21 19 18 17 16 16 16 16 17 18 16 12 12 15 18 21 24 26 29 30 33 35 34 34 34 32 30 29 27 26 29 32 31 31 33 34 34 33 33 32 31 28 27 27 26 26 24 21 21 19 16 18 23 26 27 27 27 26
32 31 30 28 27 26 26 26 26 26 25 24 23 22 22 22 22 22 21 19 17 17 16 16 17 18 17 14 11 12 15 19 21 23 23 22 24 27 28 29 29 28 26 25 23 23 26 28 27 27 28 29 30 29 30 32 32 30 28 27 26 25 23 22 23 20 16 16 21 25 25 25 24 24
27 27 27 26 25 24 24 25 26 26 26 25 25 24 23 22 23 23 21 20 19 17 16 16 16 16 17 16 13 12 13 15 18 19 17 14 14 15 17 21 23 22 22 22 21 20 22 23 24 25 26 27 27 27 27 29 31 31 30 28 26 24 23 23 24 22 18 16 18 20 21 22 23 23
24 24 24 24 24 24 24 24 25 25 25 25 25 25 24 23 24 23 22 20 19 18 18 18 17 16 16 16 15 13 12 12 14 16 16 14 11 10 11 14 17 18 18 19 18 18 19 21 22 24 26 26 26 27 28 28 29 30 30 27 25 23 23 23 24 23 21 17 16 17 21 23 23 21
23 22 22 23 24 24 24 24 24 24 24 24 24 24 24 24 24 24 23 21 19 18 18 18 17 16 16 16 16 15 12 11 10 12 14 14 12 12 11 12 14 15 16 16 16 16 18 20 21 23 25 25 26 27 28 26 26 27 27 25 24 23 22 22 24 23 19 16 16 19 24 24 23 22
21 22 22 23 23 23 24 24 24 23 23 23 23 23 23 22 23 23 23 22 20 18 17 17 16 16 16 16 16 16 14 11 9 9 11 12 13 15 14 14 14 14 13 14 15 15 17 21 23 25 27 27 26 26 26 25 25 25 23 22 23 23 21 21 23 21 17 15 18 24 27 25 23 22
20 21 22 22 22 23 23 23 23 23 22 22 23 23 23 23 23 23 23 23 21 20 18 17 17 16 15 15 16 16 15 12 9 9 10 10 12 15 16 15 15 15 15 15 16 18 20 23 26 28 29 29 29 27 25 24 24 24 22 22 22 21 20 20 20 18 15 16 23 27 26 23 21 20
21 20 21 22 22 22 23 23 23 23 22 21 22 22 22 23 23 23 23 23 22 21 19 18 17 16 15 15 15 16 16 14 12 11 10 10 11 14 16 15 14 14 16 17 18 20 23 25 27 28 27 26 24 21 20 21 22 21 20 21 22 20 19 20 18 15 14 20 26 27 24 23 21 17
23 22 21 21 22 22 22 23 23 22 21 21 21 21 21 21 22 22 22 21 21 21 19 18 16 16 15 14 14 15 16 15 13 12 11 11 11 12 15 16 16 14 15 17 18 19 19 21 22 22 21 20 19 19 19 19 18 17 15 15 16 18 19 18 15 12 15 22 25 25 24 22 18 14
24 23 22 21 22 22 22 23 23 22 21 21 21 21 22 21 21 21 21 20 19 19 18 17 16 16 15 14 13 13 14 14 13 12 11 11 12 12 14 16 18 18 16 16 17 16 14 15 16 17 17 18 20 21 21 19 18 17 14 10 12 16 16 12 9 12 19 23 22 21 22 19 16 13
24 24 23 22 22 22 22 22 22 22 22 21 21 21 22 22 22 21 21 20 19 18 17 17 16 16 15 14 12 11 11 11 11 11 10 10 11 13 13 15 17 18 17 15 15 13 11 11 13 15 17 19 21 23 22 20 19 18 13 8 10 14 12 8 9 15 21 19 15 14 15 15 13 11
24 24 24 23 22 22 22 22 22 21 21 21 21 21 22 23 23 22 22 21 20 19 18 18 17 16 15 14 12 10 8 9 10 11 11 10 10 11 13 13 15 17 16 15 14 14 12 12 12 13 14 18 22 23 22 20 18 15 11 8 11 16 16 15 17 20 20 18 14 12 13 12 10 8
25 24 24 23 22 22 22 22 21 21 21 21 22 22 22 23 23 22 22 22 21 20 19 18 17 16 16 15 13 11 8 7 8 10 11 11 9 10 12 13 14 16 16 14 14 14 13 12 12 11 13 16 19 20 19 18 15 12 11 10 16 21 22 22 22 20 18 16 13 11 13 14 11 9
Wind_Direction
293 290 287 286 286 285 284 283 283 283 281 279 279 279 279 284 292 296 297 294 291 292 293 291 289 288 286 283 280 276 271 267 264 263 261 260 258 257 256 256 256 255 256 260 267 271 266 256 251 254 258 258 258 262 264 265 265 265 264 263 260 257 253 252 250 244 244 250 246 239 238 241 244 243
291 287 284 282 282 282 282 282 281 280 280 279 278 277 276 277 280 284 290 290 287 288 290 288 289 289 286 285 285 283 279 273 269 265 263 261 260 259 258 256 255 256 256 256 257 260 257 252 250 252 255 252 249 255 262 263 263 263 262 260 256 255 255 255 253 247 247 251 249 243 240 241 242 242
291 288 285 283 282 283 283 282 282 281 280 281 280 280 279 278 277 277 282 284 283 284 285 283 283 284 285 287 287 285 283 281 278 274 269 266 264 262 260 257 256 256 256 256 256 257 257 254 252 252 254 252 247 251 257 260 262 262 261 258 253 250 250 251 252 250 249 249 248 248 246 241 241 242
291 289 287 286 285 285 284 282 282 282 282 282 282 282 282 280 278 277 277 278 280 281 282 282 283 284 286 288 287 286 285 284 283 281 278 275 272 268 263 260 258 256 256 257 257 258 258 258 257 255 253 252 250 250 253 257 259 259 259 258 253 248 247 249 251 251 250 247 247 249 248 243 240 241
292 290 288 287 287 287 286 284 284 284 284 285 285 284 284 283 281 280 277 277 281 283 283 283 284 285 287 287 287 288 287 285 284 283 281 280 278 275 271 267 263 259 257 256 257 258 258 258 259 259 257 255 252 249 251 255 256 256 257 256 254 251 249 249 251 252 249 246 245 246 247 245 242 242
294 292 290 288 288 289 288 287 287 287 287 287 287 286 286 285 283 281 279 278 281 284 285 286 286 286 287 287 287 288 288 286 286 284 281 278 278 278 277 274 270 265 261 258 256 257 258 259 260 261 260 258 254 249 249 252 253 254 254 255 257 256 252 252 255 253 247 243 244 244 244 244 242 242
294 292 291 290 290 290 289 288 288 288 287 287 287 286 285 284 282 281 280 279 280 283 286 287 287 286 287 287 286 288 289 288 287 286 282 280 280 278 277 277 275 271 268 264 259 257 256 257 259 261 261 258 255 250 247 248 250 252 252 253 258 260 257 256 257 254 248 245 247 245 241 241 241 240
292 292 292 291 292 291 289 288 287 286 285 285 285 285 284 284 283 283 281 279 280 282 284 285 285 285 286 287 286 287 289 288 287 287 285 283 281 278 277 278 277 276 274 271 266 262 258 256 256 258 260 259 257 254 250 248 250 251 250 251 256 260 259 256 254 252 250 251 251 245 239 241 242 239
293 293 292 292 293 291 289 288 287 287 287 286 286 286 286 286 286 285 283 281 281 281 282 284 284 284 284 285 285 285 287 288 288 287 286 284 282 280 278 278 278 280 280 277 273 267 262 258 255 255 256 257 259 256 252 251 252 251 249 247 250 255 260 259 255 254 252 253 253 247 241 241 243 240
293 292 292 291 291 290 290 289 289 290 289 288 287 286 287 288 287 286 284 283 282 281 281 283 284 283 283 284 284 283 285 288 289 287 286 283 282 282 282 281 281 281 282 281 278 274 270 264 259 256 254 255 256 255 252 252 252 249 247 245 245 250 258 259 256 256 254 253 254 251 245 243 244 242
295 292 292 292 292 292 291 291 291 291 291 289 288 287 289 290 288 286 284 283 283 282 281 282 283 282 282 283 283 282 284 287 285 284 285 285 284 284 284 285 284 283 282 281 279 277 275 271 266 262 258 256 255 254 253 254 252 248 245 244 243 247 254 257 255 255 255 253 253 252 248 245 244 242
297 295 294 294 295 294 293 293 292 291 291 290 289 288 289 289 287 285 284 283 282 281 281 281 282 283 283 282 283 283 284 284 281 281 284 286 287 287 287 287 286 284 282 280 278 277 275 273 269 265 261 259 258 256 255 254 252 248 246 244 242 244 250 254 254 254 254 251 251 253 250 245 244 240
295 295 295 296 296 296 295 295 293 291 291 290 289 289 288 287 285 284 283 282 281 280 279 279 280 281 281 281 282 282 281 281 282 285 285 284 287 289 289 288 284 282 281 280 279 278 277 277 274 268 261 258 258 258 257 255 252 248 245 245 242 242 246 250 252 252 251 249 249 252 252 248 245 240
295 296 295 296 296 295 295 294 293 292 291 289 287 286 284 281 280 280 280 280 280 278 277 278 278 278 278 280 281 280 281 282 284 286 285 284 286 287 287 287 283 279 282 284 280 277 277 279 280 276 268 260 258 260 258 256 254 251 247 245 244 242 243 247 251 249 246 246 246 247 251 251 247 240
296 296 296 295 295 294 294 293 292 290 288 286 284 283 281 278 275 274 274 274 274 274 274 275 276 275 276 279 281 280 282 284 283 284 282 282 283 282 281 283 283 280 282 284 283 281 279 279 279 278 272 263 258 258 256 253 256 257 251 246 244 243 242 243 247 247 244 242 242 242 246 249 248 243
296 296 296 295 294 294 293 292 291 289 286 285 284 283 282 281 278 276 274 272 271 270 271 272 273 273 275 278 280 280 281 282 281 282 280 279 280 278 276 277 280 284 285 282 281 282 281 280 279 276 270 262 257 255 253 250 251 256 254 248 243 242 241 241 243 246 245 242 240 239 241 244 245 244
294 294 295 295 293 292 291 290 288 287 287 286 285 284 284 282 282 281 279 276 274 271 270 269 270 272 273 275 277 278 279 278 278 279 278 278 277 274 273 275 279 285 286 280 279 281 281 281 281 278 272 266 260 256 253 250 248 250 251 248 241 239 239 240 242 243 244 243 241 238 238 241 243 243
294 295 296 295 294 292 290 289 289 289 290 289 289 288 287 286 286 285 284 283 280 277 273 270 269 270 270 270 274 276 276 275 274 274 275 277 276 275 275 277 279 281 282 278 276 278 280 280 280 279 275 271 267 260 254 252 250 248 246 244 240 238 237 238 239 240 242 244 243 237 235 237 240 242
296 296 296 295 294 293 291 291 292 293 294 293 293 292 290 290 289 288 288 288 286 284 282 279 277 275 273 272 273 275 275 273 273 273 274 275 275 274 274 275 274 275 278 276 271 272 276 279 279 280 279 276 274 268 258 253 251 249 245 242 239 237 236 236 236 238 240 243 244 240 237 237 238 239
298 297 296 294 293 292 292 292 292 293 294 294 293 291 290 290 289 288 289 289 287 286 285 284 283 282 282 279 276 275 274 273 274 274 272 271 269 267 267 268 268 270 274 275 269 268 272 276 276 279 283 282 279 273 263 255 252 253 249 243 238 236 236 236 235 237 240 241 241 239 238 238 238 238
300 298 295 294 294 294 293 294 294 294 296 296 294 292 291 291 290 290 291 290 287 284 282 281 280 280 280 279 277 276 275 276 276 272 266 265 264 262 260 261 264 267 270 273 270 265 266 271 273 278 286 287 282 276 266 256 253 255 250 242 238 236 236 236 235 237 239 238 236 236 237 238 239 239
304 301 299 298 299 299 298 299 299 298 297 296 295 293 293 293 292 292 292 291 289 286 283 280 277 275 273 272 272 273 273 273 274 267 262 263 263 259 256 258 262 264 265 268 268 263 262 267 270 274 282 286 284 277 265 255 254 258 251 242 236 233 234 237 235 233 235 234 233 235 236 236 238 239
309 306 304 304 303 302 301 300 298 297 294 295 297 298 297 295 293 292 292 292 291 289 286 284 282 279 276 274 273 272 270 268 268 266 264 264 261 257 257 258 258 257 258 263 264 259 259 262 265 268 275 282 283 278 265 256 258 263 257 245 236 232 234 235 232 231 233 232 231 232 233 234 236 239
311 308 307 305 303 302 300 299 298 297 296 297 300 300 297 295 294 295 295 292 290 288 286 284 283 281 280 278 276 274 272 270 269 269 270 268 261 257 257 256 253 253 256 262 263 258 257 258 261 264 266 271 278 276 265 258 263 271 269 255 244 239 235 230 228 229 228 227 228 229 230 233 236 239
309 308 307 305 305 308 310 309 307 305 302 299 297 294 292 292 293 292 289 285 282 281 279 279 279 279 279 278 276 275 275 275 275 274 274 272 265 258 254 252 251 252 255 260 259 255 253 253 255 259 259 261 270 272 265 261 269 278 275 263 251 241 233 228 230 231 228 229 234 236 236 238 240 241
308 310 310 311 316 322 322 316 310 306 301 296 292 290 289 288 285 281 279 279 280 280 279 278 278 277 276 276 276 276 275 275 275 274 273 274 271 264 258 254 252 252 256 259 255 249 245 245 247 250 251 252 260 269 269 266 267 268 261 250 242 234 228 228 232 235 236 240 245 248 249 249 248 245
313 315 316 317 320 320 316 310 306 303 300 297 294 290 287 284 281 280 279 280 281 281 280 279 277 275 274 273 272 273 273 272 272 273 275 277 274 269 263 258 255 255 257 259 254 245 239 239 243 247 248 248 252 259 265 266 262 258 250 240 234 231 230 233 236 240 243 247 251 254 255 254 251 248
317 315 314 314 315 313 311 309 309 309 308 305 299 293 290 287 286 285 283 282 281 280 280 280 277 274 271 269 268 270 272 272 274 275 277 277 273 267 264 261 259 258 257 255 251 244 238 238 242 245 246 247 250 252 257 261 262 263 265 260 248 241 243 246 247 248 251 253 254 254 253 251 249 246
312 309 310 313 314 315 315 316 316 316 314 310 304 302 302 299 294 291 289 290 293 294 296 298 293 282 273 269 269 271 273 273 274 274 275 276 274 269 265 262 259 257 255 251 246 240 235 235 238 240 241 243 246 249 254 261 263 264 272 275 266 256 254 252 251 251 252 252 250 248 248 249 245 240
308 309 312 315 317 317 317 317 316 314 312 310 310 315 319 313 306 304 304 308 316 320 319 316 309 300 291 286 283 281 278 273 271 271 273 276 277 275 269 263 259 255 251 247 242 237 233 233 234 234 235 239 244 245 248 255 259 259 265 273 273 269 265 257 252 252 250 246 245 245 246 244 239 235
310 312 315 317 316 315 314 312 310 309 309 310 314 322 329 327 321 319 323 328 333 335 335 331 322 313 311 309 303 294 285 279 276 278 279 279 279 277 269 261 258 256 253 248 244 238 234 233 233 233 235 240 245 246 245 250 255 257 261 266 268 268 268 262 254 251 249 247 246 244 239 232 229 232
311 313 315 315 313 311 310 309 309 309 310 314 321 328 334 335 333 332 335 340 341 341 344 344 337 328 327 324 315 306 298 294 292 290 286 283 282 277 263 252 251 253 250 248 247 241 234 232 232 232 235 239 242 244 246 248 250 254 261 264 263 265 270 265 252 246 249 250 246 238 230 228 230 232
312 312 313 314 313 313 316 316 317 317 318 321 327 333 337 339 339 340 342 343 345 348 349 348 345 343 344 340 327 314 305 301 300 295 288 284 281 272 256 245 246 247 242 243 247 238 227 224 225 227 232 236 240 244 247 248 249 253 259 261 262 265 268 258 243 243 252 250 241 235 232 231 231 229
312 311 313 315 317 321 324 325 325 326 325 327 330 334 338 341 341 341 341 342 345 348 350 348 346 344 344 342 333 318 308 306 307 303 294 287 281 269 251 240 241 241 237 239 240 230 217 213 216 223 230 237 242 244 242 243 247 253 257 259 261 264 261 247 239 246 259 252 238 235 236 235 231 229
314 314 317 320 323 328 331 330 331 331 330 330 331 331 335 339 341 340 339 340 341 343 346 347 344 338 336 335 332 324 316 314 315 314 308 298 286 272 254 240 235 233 232 232 228 218 209 207 211 219 227 234 239 241 240 241 244 248 252 256 257 256 251 243 240 249 262 258 240 235 237 237 235 234
315 319 323 325 328 333 334 334 334 334 333 333 333 332 332 335 337 339 339 337 338 340 342 342 340 335 330 326 322 322 321 317 314 312 308 299 283 267 255 242 233 229 228 226 218 207 203 205 207 212 218 223 227 232 236 238 238 241 248 253 253 250 246 246 249 256 260 257 244 237 235 227 217 210
321 326 328 329 331 335 336 336 336 335 335 335 334 334 334 334 334 336 337 336 336 337 338 338 336 334 329 321 313 310 309 311 311 305 299 290 270 252 244 238 232 230 228 224 214 203 200 203 205 207 210 211 214 223 232 237 240 243 246 248 247 247 249 256 259 257 252 247 241 234 225 210 192 183
329 330 330 331 334 335 335 337 337 336 336 336 335 335 334 334 333 332 332 332 333 334 335 334 330 330 329 322 313 305 299 301 307 305 300 288 264 246 237 230 229 233 234 229 224 215 208 207 208 208 208 209 215 224 233 239 244 245 243 242 244 249 255 259 256 253 252 246 229 215 205 193 179 171
336 335 333 333 334 335 336 337 337 337 337 337 337 337 335 334 333 331 328 330 331 332 333 332 329 327 325 320 313 304 297 293 291 292 301 296 271 251 239 229 228 233 235 232 230 226 220 215 216 218 219 221 228 235 239 243 245 245 243 244 247 250 249 246 245 252 254 232 206 194 186 176 167 167
339 339 337 335 334 336 336 336 336 337 338 338 339 340 338 337 335 332 330 330 330 330 331 331 329 327 324 318 309 298 289 281 275 274 281 287 278 259 244 235 234 235 234 231 228 225 223 223 224 226 228 232 238 244 249 250 251 251 248 244 242 243 239 234 237 246 236 209 194 183 174 166 161 162
340 340 340 338 336 336 336 335 335 335 337 339 340 340 341 340 338 335 333 332 330 328 328 328 329 328 326 322 313 299 285 275 268 262 261 268 272 263 250 242 238 235 237 238 234 229 229 228 228 229 232 236 237 239 242 246 251 254 250 240 235 233 229 225 227 222 199 186 180 171 165 165 165 162
339 340 341 340 338 336 336 334 333 334 337 339 340 341 342 342 341 338 335 333 330 328 327 328 330 330 327 323 315 303 289 277 266 255 252 257 258 254 251 246 239 235 239 243 243 243 240 232 228 229 230 227 226 229 234 243 250 254 254 247 231 222 219 220 220 196 179 173 171 168 165 165 165 165
339 339 340 341 340 339 336 333 332 334 337 338 340 342 344 344 344 344 341 338 335 333 331 331 333 333 331 326 318 307 293 278 263 247 242 248 249 245 245 245 242 240 242 244 247 250 245 233 229 229 225 220 221 226 235 245 251 253 257 251 217 205 204 204 195 180 170 166 171 178 179 179 179 181
339 339 341 342 341 340 337 334 333 335 336 337 339 343 346 346 347 348 346 344 341 338 335 336 337 337 334 329 322 313 297 276 258 240 228 230 239 240 239 241 241 239 239 242 243 241 240 241 241 232 221 216 217 223 235 243 245 249 260 244 195 176 173 176 176 169 163 164 172 181 186 188 188 187
338 339 341 342 341 340 338 335 333 335 337 338 340 344 347 347 347 350 351 350 347 343 340 340 341 341 339 335 330 325 314 284 253 230 218 217 222 227 233 238 237 234 235 237 236 233 237 243 239 226 215 211 213 222 234 237 236 247 256 219 174 159 160 170 172 167 165 168 171 175 180 184 187 184